GW0047 Weather Reports


Display with metric or nautical units.
time (UTC)temp
F
wind
direction
speed
MPH
gust
MPH
rain 1hr
in
rain 24hr
in
rain mn
in
humidity
%
barometer
mb
20260505230004 79 169 8.0 19.0 0.00 0.06 0.06 41 1008.4
20260505225504 79 182 8.0 19.0 0.00 0.06 0.06 41 1008.5
20260505225003 79 155 7.0 18.0 0.00 0.06 0.06 40 1008.3
20260505224503 80 208 7.0 18.0 0.00 0.06 0.06 40 1008.4
20260505224432 80 205 7.0 17.0 0.00 0.06 0.06 40 1008.3
20260505223503 80 190 7.0 19.0 0.00 0.06 0.06 41 1008.4
20260505223007 80 123 7.0 19.0 0.00 0.06 0.06 40 1008.2
20260505222508 80 225 8.0 20.0 0.00 0.06 0.06 41 1008.3
20260505222007 80 176 9.0 20.0 0.00 0.06 0.06 40 1008.2
20260505221939 80 225 9.0 19.0 0.00 0.06 0.06 41 1007.9
20260505221006 80 145 9.0 19.0 0.00 0.06 0.06 41 1008.0
20260505220501 80 194 8.0 19.0 0.00 0.06 0.06 41 1008.1
20260505220008 80 173 7.0 16.0 0.00 0.06 0.06 41 1008.1
20260505215502 81 163 6.0 18.0 0.00 0.06 0.06 41 1008.1
20260505215001 81 169 7.0 18.0 0.00 0.06 0.06 41 1008.3
20260505214730 80 152 9.0 18.0 0.00 0.06 0.06 42 1008.3
20260505214004 80 178 9.0 21.0 0.00 0.06 0.06 41 1008.2
20260505213513 81 150 8.0 21.0 0.00 0.06 0.06 40 1008.3
20260505213434 81 154 8.0 19.0 0.00 0.06 0.06 41 1008.3
20260505212501 81 156 8.0 21.0 0.00 0.06 0.06 41 1008.3
20260505212433 81 121 8.0 21.0 0.00 0.06 0.06 41 1008.3
20260505211506 80 157 9.0 23.0 0.00 0.06 0.06 41 1008.2
20260505211005 80 266 9.0 23.0 0.00 0.06 0.06 40 1008.1
20260505210504 81 197 8.0 20.0 0.00 0.06 0.06 40 1008.0
20260505210002 81 200 8.0 18.0 0.00 0.06 0.06 41 1008.0
20260505205928 81 140 9.0 20.0 0.00 0.06 0.06 42 1008.1
20260505205430 81 185 9.0 20.0 0.00 0.06 0.06 40 1008.1
20260505204502 81 184 8.0 18.0 0.00 0.06 0.06 40 1008.1
20260505204001 81 178 7.0 17.0 0.00 0.06 0.06 39 1008.1
20260505203926 81 202 8.0 17.0 0.00 0.06 0.06 39 1007.9
20260505203005 81 135 9.0 22.0 0.00 0.06 0.06 38 1007.9
20260505202501 81 167 8.0 22.0 0.00 0.06 0.06 38 1008.1
20260505202408 82 148 8.0 18.0 0.00 0.06 0.06 39 1008.0
20260505201506 82 188 7.0 19.0 0.00 0.06 0.06 38 1008.1
20260505201005 82 242 7.0 19.0 0.00 0.06 0.06 39 1008.2
20260505200506 82 217 7.0 20.0 0.00 0.06 0.06 39 1008.1
20260505200006 81 195 7.0 20.0 0.00 0.06 0.06 40 1008.2
20260505195501 82 194 8.0 20.0 0.00 0.06 0.06 40 1008.3
20260505195153 82 213 10.0 20.0 0.00 0.06 0.06 40 1008.2
20260505194428 82 173 8.0 17.0 0.00 0.06 0.06 40 1008.3
20260505193508 82 223 8.0 20.0 0.00 0.06 0.06 41 1008.3
20260505193005 81 171 8.0 20.0 0.00 0.06 0.06 41 1008.2
20260505192507 81 153 9.0 22.0 0.00 0.06 0.06 42 1008.3
20260505192001 81 178 8.0 22.0 0.00 0.06 0.06 42 1008.5
20260505191507 81 206 7.0 15.0 0.00 0.06 0.06 42 1008.4
20260505191000 81 182 7.0 15.0 0.00 0.06 0.06 42 1008.5
20260505190501 82 222 8.0 15.0 0.00 0.06 0.06 40 1008.4
20260505190027 82 250 7.0 15.0 0.00 0.06 0.06 40 1008.5
20260505185842 82 205 6.0 15.0 0.00 0.06 0.06 39 1008.7
20260505185025 82 177 5.0 12.0 0.00 0.06 0.06 41 1008.6
20260505184523 81 240 6.0 12.0 0.00 0.06 0.06 41 1008.6
20260505184018 81 156 6.0 12.0 0.00 0.06 0.06 42 1008.7
20260505183529 81 182 6.0 15.0 0.00 0.06 0.06 42 1008.8
20260505183045 82 148 8.0 15.0 0.00 0.06 0.06 42 1008.9
20260505183026 81 250 7.0 15.0 0.00 0.06 0.06 41 1008.8
20260505182013 82 193 7.0 17.0 0.00 0.06 0.06 38 1008.9
20260505181518 83 226 6.0 17.0 0.00 0.06 0.06 38 1009.0
20260505181018 82 157 8.0 18.0 0.00 0.06 0.06 36 1009.2
20260505180750 82 205 9.0 18.0 0.00 0.06 0.06 38 1009.2
20260505180523 82 205 9.0 18.0 0.00 0.06 0.06 38 1009.2
20260505180017 82 190 7.0 17.0 0.00 0.06 0.06 37 1009.3
20260505175504 82 143 6.0 18.0 0.00 0.06 0.06 40 1009.5
20260505175023 81 219 9.0 20.0 0.00 0.06 0.06 39 1009.4
20260505175019 82 198 7.0 18.0 0.00 0.06 0.06 40 1009.5
20260505174006 81 217 8.0 20.0 0.00 0.06 0.06 41 1009.5
20260505173503 81 175 7.0 15.0 0.00 0.06 0.06 41 1009.5
20260505173018 81 185 8.0 16.0 0.00 0.06 0.06 41 1009.7
20260505172504 81 206 8.0 17.0 0.00 0.06 0.06 41 1009.6
20260505172002 80 148 7.0 17.0 0.00 0.06 0.06 43 1009.5
20260505171511 80 203 7.0 14.0 0.00 0.06 0.06 44 1009.6
20260505171507 80 223 7.0 14.0 0.00 0.06 0.06 44 1009.6
20260505170830 80 129 6.0 13.0 0.00 0.06 0.06 46 1009.6
20260505170002 80 213 5.0 15.0 0.00 0.06 0.06 45 1009.7
20260505165502 80 189 5.0 15.0 0.00 0.06 0.06 48 1009.8
20260505165007 79 259 6.0 17.0 0.00 0.06 0.06 47 1010.0
20260505164502 79 211 6.0 17.0 0.00 0.06 0.06 47 1010.1
20260505164004 79 254 5.0 14.0 0.00 0.06 0.06 46 1010.2
20260505163504 79 242 6.0 14.0 0.00 0.06 0.06 47 1010.3
20260505162957 79 141 6.0 14.0 0.00 0.06 0.06 49 1010.4
20260505162446 78 202 6.0 14.0 0.00 0.06 0.06 49 1010.3
20260505161945 78 227 7.0 16.0 0.00 0.06 0.06 47 1010.4
20260505161438 78 192 7.0 16.0 0.00 0.06 0.06 48 1010.4
20260505160935 78 269 6.0 15.0 0.00 0.06 0.06 52 1010.4
20260505160431 78 289 6.0 15.0 0.00 0.06 0.06 49 1010.4
20260505152935 77 180 4.0 12.0 0.00 0.06 0.06 51 1010.7
20260505152437 77 198 4.0 10.0 0.00 0.06 0.06 51 1010.7
20260505151930 76 182 4.0 10.0 0.00 0.06 0.06 52 1010.8
20260505151815 76 284 4.0 11.0 0.00 0.06 0.06 53 1010.7
20260505151320 76 218 4.0 11.0 0.00 0.06 0.06 53 1010.8
20260505150435 75 201 4.0 7.0 0.00 0.06 0.06 53 1010.8
20260505124914 65 187 3.0 7.0 0.00 0.06 0.06 70 1011.6
20260505124413 65 179 2.0 7.0 0.00 0.06 0.06 70 1011.6
20260505124334 65 199 1.0 3.0 0.00 0.06 0.06 73 1011.6
20260505123416 64 239 1.0 3.0 0.00 0.06 0.06 73 1011.5
20260505122912 64 145 1.0 3.0 0.00 0.06 0.06 75 1011.4
20260505122417 63 176 1.0 3.0 0.00 0.06 0.06 75 1011.5
20260505121910 62 222 1.0 3.0 0.00 0.06 0.06 76 1011.5
20260505121410 62 221 1.0 3.0 0.00 0.06 0.06 78 1011.4
20260505120914 61 221 1.0 3.0 0.00 0.06 0.06 79 1011.5
20260505120411 60 257 1.0 3.0 0.00 0.06 0.06 81 1011.6
20260505115914 60 269 0.0 2.0 0.00 0.06 0.06 82 1011.6
20260505115410 59 202 1.0 3.0 0.00 0.06 0.06 82 1011.4
20260505114912 59 0 0.0 3.0 0.00 0.06 0.06 84 1011.3
20260505114412 58 159 1.0 3.0 0.00 0.06 0.06 85 1011.3
20260505113914 58 145 1.0 3.0 0.00 0.06 0.06 86 1011.3
20260505113601 57 165 1.0 3.0 0.00 0.06 0.06 87 1011.1
20260505112410 56 159 1.0 4.0 0.00 0.06 0.06 89 1011.2
20260505112328 56 159 1.0 4.0 0.00 0.06 0.06 89 1011.1
20260505111410 56 169 0.0 4.0 0.00 0.06 0.06 90 1011.1
20260505110912 55 0 1.0 4.0 0.00 0.06 0.06 91 1011.2
20260505110414 55 244 1.0 4.0 0.00 0.06 0.06 92 1011.3
20260505101406 54 116 0.0 1.0 0.00 0.06 0.06 91 1010.8
20260505101317 54 116 0.0 2.0 0.00 0.06 0.06 91 1010.8
20260505100402 54 116 1.0 2.0 0.00 0.06 0.06 90 1010.8
20260505100327 54 116 0.0 2.0 0.00 0.06 0.06 90 1010.9
20260505095405 54 116 0.0 2.0 0.00 0.06 0.06 90 1010.8
20260505094903 55 116 0.0 2.0 0.00 0.06 0.06 89 1010.8
20260505094403 55 116 0.0 2.0 0.00 0.06 0.06 89 1010.8
20260505093901 55 116 1.0 3.0 0.05 0.06 0.06 89 1010.9
20260505093404 55 115 1.0 3.0 0.06 0.06 0.06 89 1010.9
20260505093322 55 111 0.0 2.0 0.06 0.06 0.06 89 1010.9
20260505092815 55 115 0.0 2.0 0.06 0.06 0.06 88 1011.0
20260505091859 56 115 1.0 2.0 0.06 0.06 0.06 88 1011.1
20260505091354 56 115 1.0 2.0 0.06 0.06 0.06 87 1011.0
20260505091302 56 123 0.0 2.0 0.06 0.06 0.06 85 1011.0
20260505090340 56 123 0.0 3.0 0.06 0.06 0.06 84 1011.0
20260505090023 56 123 0.0 3.0 0.06 0.06 0.06 83 1011.1
20260505084832 58 112 1.0 3.0 0.06 0.06 0.06 80 1011.1
20260505084739 59 107 1.0 3.0 0.06 0.06 0.05 77 1011.2
20260505083835 60 101 1.0 3.0 0.01 0.01 0.01 72 1011.0
20260505083332 60 277 1.0 3.0 0.00 0.00 0.00 68 1011.1
20260505082837 60 277 1.0 3.0 0.00 0.00 0.00 66 1011.1
20260505082333 60 269 1.0 3.0 0.00 0.00 0.00 66 1011.1
20260505081830 60 319 1.0 3.0 0.00 0.00 0.00 67 1010.9
20260505081332 60 286 1.0 3.0 0.00 0.00 0.00 67 1010.9
20260505080833 60 294 1.0 2.0 0.00 0.00 0.00 67 1010.7
20260505080332 60 209 0.0 2.0 0.00 0.00 0.00 67 1010.2
20260505075830 61 209 0.0 1.0 0.00 0.00 0.00 66 1010.4
20260505075332 61 209 0.0 2.0 0.00 0.00 0.00 65 1010.4
20260505074835 61 205 0.0 2.0 0.00 0.00 0.00 65 1010.3
20260505074333 61 205 1.0 5.0 0.00 0.00 0.00 64 1010.2
20260505073830 61 205 1.0 5.0 0.00 0.00 0.00 63 1010.4
20260505073329 61 222 1.0 4.0 0.00 0.00 0.00 63 1010.5
20260505072829 61 212 1.0 5.0 0.00 0.00 0.00 63 1010.6
20260505072319 62 192 1.0 5.0 0.00 0.00 0.00 62 1010.5
20260505071817 62 233 1.0 5.0 0.00 0.00 0.00 62 1010.5
20260505071312 62 246 2.0 5.0 0.00 0.00 0.00 62 1010.5
20260505070809 62 223 2.0 5.0 0.00 0.00 0.00 61 1010.5
20260505070310 62 236 2.0 6.0 0.00 0.00 0.00 61 1010.4
20260505070242 62 213 2.0 6.0 0.00 0.00 0.00 61 1010.6
20260505065309 62 233 2.0 5.0 0.00 0.00 0.00 61 1010.5
20260505064809 62 200 2.0 5.0 0.00 0.00 0.00 61 1010.5
20260505064507 62 194 2.0 5.0 0.00 0.00 0.00 61 1010.6
20260505063309 62 198 2.0 4.0 0.00 0.00 0.00 60 1010.6
20260505062811 62 186 2.0 4.0 0.00 0.00 0.00 60 1010.6
20260505062722 61 225 2.0 4.0 0.00 0.00 0.00 61 1010.7
20260505062000 61 242 2.0 4.0 0.00 0.00 0.00 61 1010.7
20260505060810 61 192 1.0 4.0 0.00 0.00 0.00 60 1010.6
20260505060330 61 175 1.0 4.0 0.00 0.00 0.00 60 1010.8
20260505060236 61 213 1.0 4.0 0.00 0.00 0.00 59 1010.6
20260505055325 61 150 1.0 4.0 0.00 0.00 0.00 59 1010.5
20260505054829 61 209 0.0 3.0 0.00 0.00 0.00 59 1010.7
20260505054322 61 150 0.0 3.0 0.00 0.00 0.00 58 1010.6
20260505053821 62 150 0.0 4.0 0.00 0.00 0.00 58 1010.7
20260505053315 62 142 0.0 4.0 0.00 0.00 0.00 57 1010.6
20260505052749 62 250 0.0 4.0 0.00 0.00 0.00 57 1010.7
20260505052244 63 250 1.0 4.0 0.00 0.00 0.00 56 1010.7
20260505051742 63 250 1.0 4.0 0.00 0.00 0.00 55 1010.5
20260505051300 63 173 2.0 11.0 0.00 0.00 0.00 55 1010.5
20260505050758 63 219 2.0 11.0 0.00 0.00 0.00 55 1010.5
20260505050259 63 212 3.0 11.0 0.00 0.00 0.00 55 1010.5
20260505041754 64 181 2.0 8.0 0.00 0.00 0.00 53 1010.5
20260505041248 64 211 2.0 8.0 0.00 0.00 0.00 52 1010.5
20260505041007 64 217 2.0 8.0 0.00 0.00 0.00 52 1010.6
20260505040752 64 217 2.0 8.0 0.00 0.00 0.00 52 1010.6
20260505040241 64 240 2.0 9.0 0.00 0.00 0.00 52 1010.4
20260505035742 65 236 2.0 9.0 0.00 0.00 0.00 51 1010.1
20260505035240 65 205 2.0 9.0 0.00 0.00 0.00 51 1010.2
20260505034736 65 199 2.0 9.0 0.00 0.00 0.00 51 1010.1
20260505034236 65 230 2.0 6.0 0.00 0.00 0.00 51 1010.0
20260505033736 65 220 2.0 5.0 0.00 0.00 0.00 50 1010.0
20260505033506 65 167 2.0 6.0 0.00 0.00 0.00 50 1010.1
20260505033250 65 167 2.0 6.0 0.00 0.00 0.00 50 1010.1
20260505033000 65 182 2.0 6.0 0.00 0.00 0.00 50 1010.2
20260505032251 65 197 2.0 8.0 0.00 0.00 0.00 50 1010.2
20260505031734 66 233 2.0 8.0 0.00 0.00 0.00 49 1010.2
20260505031721 66 155 3.0 9.0 0.00 0.00 0.00 49 1010.2
20260505030730 66 217 3.0 9.0 0.00 0.00 0.00 49 1010.3
20260505030634 66 164 2.0 7.0 0.00 0.00 0.00 49 1010.4
20260505025941 66 167 2.0 7.0 0.00 0.00 0.00 49 1010.4
20260505024732 66 223 2.0 8.0 0.00 0.00 0.00 48 1010.3
20260505024237 66 205 2.0 8.0 0.00 0.00 0.00 48 1010.4
20260505023731 66 213 2.0 6.0 0.00 0.00 0.00 48 1010.4
20260505023459 67 222 2.0 10.0 0.00 0.00 0.00 47 1010.4
20260505022735 67 190 4.0 10.0 0.00 0.00 0.00 47 1010.5
20260505022239 67 182 4.0 10.0 0.00 0.00 0.00 47 1010.5
20260505021730 67 215 5.0 11.0 0.00 0.00 0.00 47 1010.5
20260505021552 67 225 4.0 11.0 0.00 0.00 0.00 47 1010.5
20260505020956 67 190 4.0 10.0 0.00 0.00 0.00 47 1010.6
20260505020739 67 190 4.0 10.0 0.00 0.00 0.00 47 1010.6
20260505020234 67 150 3.0 9.0 0.00 0.00 0.00 48 1010.5
20260505015731 67 165 3.0 9.0 0.00 0.00 0.00 47 1010.6
20260505015229 67 192 3.0 9.0 0.00 0.00 0.00 48 1010.4
20260505014730 67 159 3.0 9.0 0.00 0.00 0.00 47 1010.5
20260505014235 67 170 3.0 9.0 0.00 0.00 0.00 48 1010.5
20260505013959 67 212 3.0 8.0 0.00 0.00 0.00 48 1010.4
20260505013736 67 212 3.0 8.0 0.00 0.00 0.00 48 1010.4
20260505013234 67 151 3.0 9.0 0.00 0.00 0.00 48 1010.5
20260505012741 67 200 3.0 9.0 0.00 0.00 0.00 47 1010.4
20260505012539 67 227 3.0 10.0 0.00 0.00 0.00 47 1010.3
20260505011952 67 217 3.0 10.0 0.00 0.00 0.00 47 1010.3
20260505011212 67 160 2.0 8.0 0.00 0.00 0.00 47 1010.2
20260505010706 67 181 3.0 8.0 0.00 0.00 0.00 47 1010.1
20260505010206 67 192 4.0 9.0 0.00 0.00 0.00 47 1010.2
20260505005705 67 164 4.0 9.0 0.00 0.00 0.00 47 1010.0
20260505005204 67 180 4.0 9.0 0.00 0.00 0.00 46 1010.1
20260505004703 67 198 4.0 9.0 0.00 0.00 0.00 46 1010.0
20260505004204 67 167 4.0 9.0 0.00 0.00 0.00 46 1010.0
20260505003711 67 161 3.0 9.0 0.00 0.00 0.00 46 1009.9
20260505003215 68 178 3.0 9.0 0.00 0.00 0.00 46 1009.9
20260505002708 68 167 4.0 9.0 0.00 0.00 0.00 45 1009.8
20260505002203 68 144 4.0 10.0 0.00 0.00 0.00 45 1009.9
20260505001937 68 210 4.0 10.0 0.00 0.00 0.00 45 1009.9
20260505001713 68 210 4.0 10.0 0.00 0.00 0.00 45 1009.9
20260505001207 68 194 4.0 11.0 0.00 0.00 0.00 45 1009.9
20260505000924 68 202 4.0 11.0 0.00 0.00 0.00 45 1009.8
20260505000705 68 202 4.0 11.0 0.00 0.00 0.00 45 1009.8
20260505000206 69 201 5.0 13.0 0.00 0.00 0.00 45 1009.7
20260504235706 69 212 4.0 13.0 0.00 0.00 0.00 44 1009.7
20260504235431 69 215 5.0 14.0 0.00 0.00 0.00 45 1009.7
20260504235212 69 215 5.0 14.0 0.00 0.00 0.00 45 1009.7
20260504234935 69 145 6.0 14.0 0.00 0.00 0.00 44 1009.6
20260504234642 69 194 6.0 11.0 0.00 0.00 0.00 44 1009.6
20260504233700 69 234 6.0 12.0 0.00 0.00 0.00 44 1009.6
20260504233154 69 238 6.0 13.0 0.00 0.00 0.00 44 1009.4
20260504233137 70 207 6.0 13.0 0.00 0.00 0.00 44 1009.6
20260504232141 70 211 6.0 13.0 0.00 0.00 0.00 43 1009.5
20260504231641 70 142 6.0 13.0 0.00 0.00 0.00 43 1009.5
20260504231140 70 200 5.0 13.0 0.00 0.00 0.00 43 1009.2
20260504230642 71 205 5.0 14.0 0.00 0.00 0.00 43 1009.1
20260504230144 71 158 6.0 16.0 0.00 0.00 0.00 43 1009.1